sat.trackr.live / text

‹ back to catalog

STARLINK-5353

NORAD 57370 · 2023-099AU

PAYLOAD ACTIVE UNKNOWN

§ Identity

Operator
Country
US
Launch date
2023-07-16
Launch site
AFETR
Launch vehicle
Mass (kg)
RCS (m²)

Purposes: comms

External: N2YO · Heavens-Above · Gunter

§ Orbital elements

Epoch: 2026-09-20T07:40:10.431552Z

Period
94.27 min
Inclination
43.0010°
Eccentricity
0.0000645
Mean motion
15.27573964 rev/d
Perigee alt
482.6 km
Apogee alt
483.5 km
Semi-major
6,861.2 km
B*
1.1272e-5
RAAN
222.6574°
Arg perigee
254.2983°
Mean anomaly
105.7797°
Rev number
17,596

§ Raw data

STARLINK-53531 57370U 23099AU  26263.31956518  .00000048  00000+0  11272-4 0  99902 57370  43.0010 222.6574 0000645 254.2983 105.7797 15.27573964175961

JSON: /api/v1/satellites/57370 · /tle

For live sub-satellite position, see the globe view (requires WebGL).

§ Visibility from observer

Set your observer location to see the next 7 days of passes ≥ 10°. The values pass through the URL so the page stays shareable.

No JS? Fill the form by hand. The geolocation button needs JavaScript.